GFSGBSN_250_spd_021.txt.gz
Wind_Speed
49 49 50 50 51 51 51 52 53 54 55 56 56 55 54 56 56 54 51 50 49 52 53 53 54 53 51 49 48 45 44 42 41 42 39 38 37 36 36 36 38 42 43 43 42 41 41
47 48 49 51 51 51 52 53 53 54 54 55 56 56 56 56 55 55 53 50 47 48 51 53 54 54 52 51 51 47 45 43 43 42 41 41 42 39 38 37 38 38 40 41 42 42 42
45 46 46 46 46 47 48 48 49 52 52 54 54 56 55 55 55 55 53 51 49 49 51 53 54 51 53 46 48 48 45 43 42 42 41 40 41 41 40 38 38 38 39 40 42 43 44
43 43 43 44 44 44 44 40 39 42 45 49 51 51 53 54 53 53 52 51 49 50 47 50 50 47 48 45 47 45 43 41 41 40 37 37 37 37 36 37 38 38 38 39 41 42 44
41 41 39 38 38 37 35 35 38 37 41 44 46 51 52 53 54 52 52 50 48 51 47 47 50 48 48 45 47 44 43 42 39 37 38 36 34 35 33 34 35 37 36 37 38 40 43
40 39 36 34 34 35 38 40 39 39 38 40 43 46 49 52 53 52 50 49 50 48 47 51 50 50 49 48 48 44 43 39 36 36 32 29 29 32 32 31 32 34 33 34 37 39 41
42 39 38 36 32 30 32 32 39 42 40 39 38 43 46 50 49 51 49 47 48 44 45 53 53 49 50 48 47 42 41 40 37 34 32 30 32 32 32 29 28 29 30 32 36 39 35
42 40 38 34 35 32 33 30 30 37 39 40 37 40 43 46 46 47 47 47 46 44 45 48 51 49 47 44 43 42 41 40 36 34 33 31 32 30 29 28 28 28 29 33 35 38 36
43 42 42 38 38 36 32 30 28 33 36 40 43 42 41 45 44 44 44 45 43 43 46 48 48 47 45 43 43 42 43 40 38 37 34 33 30 30 29 29 29 29 31 31 32 34 34
44 45 45 41 39 40 34 32 27 27 33 39 41 40 41 43 43 44 43 42 42 45 47 45 44 44 44 44 43 42 42 41 40 39 38 35 30 31 30 29 29 32 32 32 33 33 36
47 46 47 45 42 40 37 32 31 26 31 39 40 41 42 44 46 43 41 40 41 45 48 43 42 43 42 43 41 42 42 42 41 41 39 36 34 33 32 30 31 31 35 34 35 36 37
49 49 50 48 46 43 41 35 32 30 31 37 41 43 44 45 45 46 45 46 46 47 46 42 44 44 44 43 43 40 41 41 41 41 42 39 38 36 35 35 35 34 35 35 36 38 34
56 53 51 51 49 44 44 39 36 33 34 34 38 40 40 40 44 43 45 47 48 46 47 44 47 46 46 45 44 43 43 43 43 42 42 41 41 40 38 37 38 37 37 36 36 35 34
57 59 56 52 51 49 44 43 41 33 37 37 38 35 32 35 38 40 41 42 38 41 36 38 45 47 48 49 48 46 46 46 47 47 46 45 47 42 40 40 40 40 37 35 32 29 34
66 60 60 59 54 52 48 46 46 40 42 43 39 37 39 44 41 45 42 39 41 41 31 42 43 46 48 48 50 51 50 50 49 48 48 48 50 43 44 42 43 41 37 35 31 29 29
72 67 64 62 61 56 54 50 50 46 46 46 46 45 43 39 51 46 41 40 37 36 40 43 47 49 51 56 57 57 57 57 55 53 54 51 52 47 45 45 44 39 36 35 32 31 32
77 72 69 67 65 64 59 57 55 53 52 48 51 46 41 44 43 39 40 39 42 42 42 45 47 49 56 58 57 62 62 60 60 58 56 55 53 50 46 46 43 39 37 37 36 34 34
77 75 74 74 69 68 66 63 60 58 56 55 54 52 45 45 44 41 40 39 40 39 39 42 43 48 47 53 52 54 52 55 52 48 48 49 46 46 41 42 40 40 40 38 39 40 34
77 78 74 77 75 72 71 70 67 64 61 62 57 57 53 48 48 45 39 41 40 35 33 31 29 32 45 45 46 45 47 31 41 43 42 40 39 38 36 39 40 39 40 40 41 40 35
71 71 79 80 79 77 77 75 74 70 68 67 66 62 59 56 53 53 46 44 39 35 30 28 22 20 35 41 46 44 38 35 36 39 36 36 34 35 37 41 37 40 45 42 42 40 36
68 73 71 78 81 83 82 80 78 78 74 72 73 67 66 65 62 57 51 47 43 39 33 27 24 25 25 34 45 41 39 34 37 35 33 31 32 33 34 33 32 33 39 35 33 35 29
62 67 71 72 78 81 85 86 83 81 81 77 73 75 71 68 69 66 60 55 48 44 37 34 29 30 30 31 34 36 30 33 34 33 34 33 33 29 28 29 24 24 31 29 28 31 30
57 63 67 71 75 76 87 90 86 87 84 84 80 77 77 71 73 70 65 60 55 47 45 39 34 31 34 32 25 27 35 37 35 37 34 32 29 27 27 25 19 18 28 25 26 29 29
50 58 64 68 71 75 79 88 90 88 87 87 88 83 80 80 77 77 67 62 60 55 51 44 41 41 26 32 38 39 37 37 37 36 33 31 28 30 28 20 16 22 21 22 25 27 29
45 51 59 63 68 72 76 79 90 89 92 86 88 89 86 83 81 78 73 70 63 58 58 52 49 37 41 42 44 42 41 40 39 35 34 33 31 24 20 15 16 14 25 26 25 26 21
37 44 51 60 64 68 71 77 79 89 89 93 87 89 91 89 85 77 79 77 68 65 61 57 51 50 43 42 37 39 39 39 35 37 38 34 30 25 27 20 15 19 19 22 21 20 7
34 39 45 52 61 65 69 72 77 81 88 91 90 89 89 92 88 85 80 75 74 70 64 63 56 57 51 46 42 38 40 38 38 36 32 31 33 30 31 26 25 20 14 20 20 19 19
33 34 41 47 55 61 66 69 73 78 80 88 88 90 89 90 91 88 87 82 76 73 71 65 62 63 58 53 48 45 43 42 40 38 36 36 35 36 35 32 32 27 24 22 22 24 25
33 32 36 42 49 57 62 64 67 74 79 80 87 90 88 89 91 90 88 86 84 79 74 67 72 68 64 60 57 54 50 48 44 46 45 44 42 37 37 37 33 32 29 28 21 21 23

GFSGBSN_250_spd_024.txt.gz
Wind_Speed
55 54 53 52 54 53 52 52 53 55 57 60 63 64 66 66 69 69 66 64 63 61 62 60 57 59 57 52 52 49 47 45 44 42 41 36 34 33 32 32 32 32 36 39 43 47 47
53 53 52 52 51 51 51 51 52 51 51 54 54 56 56 57 58 57 57 58 57 55 53 49 48 54 50 52 52 50 49 48 47 44 42 41 37 35 35 36 34 35 37 38 40 43 45
52 51 50 51 50 50 51 52 53 54 54 54 54 54 55 53 55 54 53 52 50 48 47 47 45 47 48 52 51 49 50 48 47 44 43 41 38 36 38 38 38 39 38 40 40 41 41
49 49 49 49 49 50 50 50 53 55 56 55 55 55 54 54 55 54 54 54 50 49 48 46 47 46 49 48 50 48 45 44 44 42 42 40 36 37 37 36 38 38 38 39 39 40 41
50 49 49 49 48 46 47 48 48 48 50 52 53 54 55 55 57 56 55 55 54 52 51 49 49 47 50 50 47 45 39 40 35 34 35 37 35 35 36 37 36 34 35 34 35 39 38
52 51 49 48 45 44 45 46 46 46 47 46 46 48 51 54 55 54 53 55 53 52 50 50 50 47 46 42 39 39 40 43 38 38 35 36 34 35 36 34 32 31 29 30 34 37 36
49 49 48 45 44 44 43 43 42 40 39 39 41 41 44 49 51 53 53 53 52 50 51 49 47 41 42 44 42 42 39 39 40 40 39 37 34 33 31 30 30 29 28 29 31 33 33
47 46 46 44 44 42 41 39 37 36 40 43 40 43 41 42 46 49 50 50 50 50 51 49 49 44 42 46 47 48 47 46 43 40 38 37 34 32 32 30 29 28 26 27 29 30 31
47 47 47 46 45 43 41 40 37 35 31 32 39 42 40 41 41 44 46 48 49 49 50 49 50 47 53 54 52 52 49 46 42 40 40 38 34 35 30 30 27 26 26 26 27 29 32
47 49 48 48 46 45 42 39 37 34 36 32 35 40 42 37 37 42 43 46 46 48 48 47 47 43 54 57 52 48 47 44 40 40 40 39 37 35 32 31 29 28 26 28 30 31 34
47 48 48 49 48 47 44 40 39 40 34 30 31 37 42 43 39 38 43 42 45 46 46 51 46 43 47 53 55 51 45 43 42 41 42 41 38 36 35 31 29 29 30 29 31 32 32
47 47 49 48 48 48 47 42 43 41 36 33 29 35 41 39 38 40 39 40 37 37 42 43 41 43 43 46 47 45 44 43 42 42 42 41 39 38 36 34 33 32 33 33 34 32 33
52 49 48 51 51 51 51 49 45 42 39 33 32 32 40 40 38 42 42 41 40 35 38 39 42 44 43 42 43 42 42 41 42 41 41 41 40 39 38 37 36 34 34 35 34 33 34
59 57 55 52 52 53 53 52 47 45 41 36 35 32 38 40 44 46 48 45 42 39 41 43 40 44 43 44 43 42 41 41 40 41 41 41 41 40 37 37 38 37 38 36 34 34 35
68 64 64 61 57 54 54 54 50 46 44 38 36 36 38 42 43 44 44 39 43 51 52 42 40 45 46 47 46 45 44 45 44 43 42 42 41 40 38 41 40 39 39 39 36 35 29
76 71 69 68 66 60 57 55 53 49 46 41 38 37 40 41 38 39 38 42 47 45 35 28 42 49 48 49 48 47 46 47 47 46 46 45 43 42 42 43 41 40 40 40 39 34 28
85 79 76 72 69 66 64 58 55 52 48 45 42 39 38 40 37 33 35 41 43 39 40 39 43 40 40 41 40 42 43 48 47 48 49 49 47 49 40 46 45 41 43 41 40 33 28
82 77 83 77 73 70 68 66 60 55 52 49 48 43 43 46 43 45 45 44 48 44 45 42 39 34 38 39 40 44 47 52 50 53 52 54 53 53 48 47 48 44 45 41 37 32 28
78 84 80 76 82 77 73 69 66 61 57 54 53 49 48 52 48 48 43 38 58 60 51 42 38 39 40 39 41 50 53 51 44 52 52 51 48 45 49 45 45 40 39 36 32 30 29
59 73 80 80 76 76 78 75 71 68 64 61 58 58 54 53 53 46 40 38 44 43 36 34 35 34 37 39 44 49 48 43 46 46 37 35 37 41 39 37 36 32 34 35 30 30 33
49 57 68 75 76 78 74 79 76 73 72 68 65 63 57 56 56 53 47 44 42 41 41 34 35 36 36 35 35 41 45 50 51 46 42 36 39 33 34 28 30 31 32 35 34 33 32
38 48 57 66 73 74 80 79 80 79 76 75 69 64 65 61 59 58 53 48 46 44 39 38 37 33 30 28 22 31 47 42 36 39 37 32 30 29 30 31 28 30 29 29 33 30 31
36 40 49 58 68 72 75 81 79 82 82 78 77 72 71 65 66 64 63 59 55 52 47 44 40 37 32 25 21 13 21 39 34 40 42 39 36 33 31 31 29 21 22 22 26 23 26
34 35 40 51 61 68 73 75 84 81 86 83 82 79 76 72 72 72 69 66 61 59 50 48 44 45 31 26 27 26 30 34 36 42 41 34 32 35 34 30 23 26 19 18 19 21 24
33 34 36 43 54 62 69 75 76 86 85 87 86 84 83 81 77 76 71 67 65 62 61 58 52 41 38 38 35 29 30 30 33 35 34 35 35 35 32 32 31 26 17 18 16 20 17
34 33 36 41 48 57 64 72 76 79 88 87 90 89 88 87 83 75 73 72 71 68 68 66 58 47 50 44 36 31 32 33 34 35 37 38 36 33 33 33 31 24 16 15 14 15 8
35 34 34 38 43 50 57 65 73 78 81 90 89 94 90 91 85 85 81 77 75 72 68 68 60 55 52 49 45 38 37 37 39 40 39 38 38 37 39 29 25 15 16 16 16 20 24
35 36 34 36 40 42 50 59 68 74 79 83 93 91 94 93 88 88 87 83 78 77 76 65 64 60 60 54 51 48 42 40 37 40 38 39 42 44 43 33 30 26 22 24 26 27 31
35 37 36 33 37 38 44 52 62 70 75 79 84 92 95 95 90 90 90 87 84 81 79 72 71 70 64 59 55 53 48 45 41 36 38 42 46 48 44 35 31 27 27 29 28 27 32

GFSGBSN_250_spd_030.txt.gz
Wind_Speed
79 84 89 89 89 88 86 85 84 83 80 78 76 76 74 75 74 72 71 73 72 74 71 69 68 68 68 67 66 66 68 65 63 63 60 53 51 45 41 39 38 37 37 37 35 35 32
69 73 73 74 76 81 81 83 82 82 82 79 78 78 76 75 73 74 72 69 66 66 67 66 66 67 67 64 61 61 60 63 62 60 55 53 53 47 45 42 40 40 38 36 33 33 30
65 63 65 64 64 63 63 66 69 70 70 70 73 73 71 71 71 67 67 67 68 67 65 65 63 64 63 62 62 60 56 55 54 54 51 49 47 47 46 46 44 41 36 36 34 35 33
60 61 62 60 58 57 56 55 56 57 58 59 60 59 58 58 59 61 61 59 60 60 60 60 57 58 58 56 56 54 52 48 47 48 48 48 47 46 47 46 42 40 38 34 32 33 35
56 58 60 61 60 59 57 56 54 53 52 53 51 51 52 52 52 53 53 54 53 49 48 48 47 47 48 45 44 42 43 44 44 44 44 44 42 40 44 41 40 39 38 33 32 33 30
50 53 56 59 61 59 58 57 56 56 52 52 51 51 52 52 52 52 52 50 49 47 45 43 41 44 45 43 45 42 41 42 41 38 36 37 37 36 39 31 29 33 28 28 31 27 30
48 51 54 57 58 58 59 58 56 53 53 53 53 53 52 53 53 52 50 51 50 49 48 45 45 45 46 48 44 42 37 38 36 33 32 33 32 32 22 22 27 29 25 22 22 24 25
44 46 53 56 58 59 59 58 55 54 54 53 53 52 51 50 49 48 47 49 50 49 49 44 46 46 49 50 47 46 44 42 41 36 37 35 33 29 25 30 33 31 29 21 21 24 24
42 41 47 53 56 55 53 52 53 53 52 51 50 49 47 47 48 49 46 46 44 46 46 47 49 48 51 50 51 51 53 48 49 42 41 40 35 37 37 34 31 33 31 23 24 23 22
48 45 48 50 51 51 53 53 53 52 51 50 48 48 47 48 47 45 44 46 45 45 43 46 47 50 49 54 54 50 51 47 45 40 41 35 42 43 42 33 32 36 33 29 26 22 22
48 43 47 48 49 49 49 51 52 53 53 52 50 48 47 46 45 43 43 44 39 41 41 49 46 49 49 50 52 51 49 41 36 37 41 38 41 39 37 36 38 37 34 31 26 23 25
48 51 47 46 48 48 49 49 49 51 51 51 48 46 45 44 41 43 46 44 43 42 38 40 42 49 48 51 49 50 46 43 42 41 43 38 41 41 44 42 43 35 33 31 28 25 27
44 48 53 53 51 52 52 51 52 51 52 50 47 46 44 43 40 40 38 33 38 35 39 41 44 51 52 50 49 50 52 48 44 41 42 45 43 45 44 44 40 35 33 31 29 26 28
46 46 46 46 52 52 52 52 51 52 52 49 48 47 46 42 39 41 33 29 33 41 46 44 47 50 50 50 50 51 55 52 46 48 46 44 44 45 46 41 38 34 33 31 30 28 28
56 54 53 53 52 52 53 54 53 53 52 52 51 50 47 46 42 37 34 30 33 45 52 39 39 43 48 48 48 49 50 55 56 54 52 51 52 50 46 44 36 34 33 29 31 31 29
58 63 64 63 59 57 55 54 56 55 54 55 53 52 50 47 43 39 35 33 38 48 46 41 40 45 47 48 47 46 49 55 53 52 52 51 51 50 48 39 36 33 31 32 32 30 30
30 40 64 74 75 70 64 59 56 58 55 54 54 54 55 48 42 40 39 39 41 44 44 41 43 43 44 42 42 40 44 51 48 47 47 46 43 41 39 36 36 34 33 32 32 32 32
37 38 41 57 75 85 78 70 63 59 59 55 55 55 53 50 46 44 42 42 42 40 45 43 44 42 42 41 41 38 42 45 44 44 41 41 38 37 34 37 35 37 36 35 34 35 32
44 46 48 55 62 71 84 86 74 66 63 60 57 57 56 55 52 48 41 42 42 38 46 46 48 45 42 43 43 43 44 41 42 43 40 41 36 37 38 39 39 37 36 39 39 37 36
50 49 48 44 48 55 65 83 88 79 72 65 62 57 52 55 52 48 44 46 44 38 47 48 48 47 48 48 47 44 41 37 37 38 40 41 35 39 41 39 37 37 42 42 40 36 33
50 51 48 39 38 50 59 70 84 86 80 73 67 59 58 56 54 52 48 48 45 36 43 50 53 52 48 47 48 44 37 36 38 36 32 35 34 38 39 37 41 44 46 44 41 39 34
50 51 46 38 32 42 55 64 77 87 82 78 74 69 68 62 58 55 53 52 46 42 43 49 50 52 45 46 45 41 32 32 34 37 34 37 37 43 45 48 47 37 39 47 46 38 32
49 50 47 37 30 36 47 59 67 82 87 85 80 77 75 68 64 59 54 53 50 47 48 48 43 35 33 36 42 39 30 34 36 37 38 40 42 45 50 51 45 41 40 40 42 31 26
47 46 49 39 30 34 40 50 63 72 85 86 85 81 78 75 68 63 57 54 56 50 53 51 42 37 37 42 41 51 45 39 37 34 35 36 38 40 50 42 37 33 37 31 25 21 16
44 45 47 43 30 34 38 44 55 67 77 87 82 83 82 80 74 68 64 59 60 54 55 53 42 39 38 44 43 42 49 44 39 38 33 27 27 33 38 41 33 37 40 28 23 16 13
44 45 46 42 32 33 37 43 48 61 71 82 87 83 83 80 77 74 70 64 59 60 58 57 47 45 43 42 45 44 44 41 32 24 26 24 19 20 30 26 33 46 38 30 23 17 18
45 47 47 39 34 30 36 42 47 54 66 74 84 87 83 81 81 78 76 71 65 66 64 63 57 54 51 49 46 45 42 40 37 31 23 22 18 12 23 27 29 39 31 27 22 23 21
47 50 47 38 33 30 35 40 45 51 57 67 77 87 87 82 86 85 80 76 73 70 73 70 66 59 56 52 50 47 43 40 37 36 31 20 15 10 11 16 28 36 27 24 23 22 20
49 51 46 39 30 31 33 38 45 48 51 60 69 80 89 86 84 86 86 82 80 75 73 73 66 61 61 60 55 53 49 47 41 36 33 29 17 17 15 20 23 23 23 21 22 28 32

GFSGBSN_250_spd_033.txt.gz
Wind_Speed
97 98 101 104 102 101 101 98 96 96 94 94 90 87 86 83 80 79 79 78 77 76 76 77 76 76 73 71 71 68 66 65 64 61 59 61 61 59 56 54 49 46 39 36 35 30 30
86 94 99 99 99 98 95 97 97 98 97 95 94 92 89 87 86 85 79 76 75 74 73 71 68 69 68 68 67 66 65 63 63 60 57 59 54 53 55 51 47 41 35 35 38 32 29
68 76 87 95 97 99 97 95 94 95 95 95 92 89 86 84 80 78 76 73 71 70 70 68 67 66 62 59 60 61 61 61 61 56 56 56 52 51 49 51 46 40 39 39 40 38 34
61 64 67 73 84 90 91 92 91 92 92 90 89 86 84 82 80 78 77 75 73 69 69 70 70 64 62 61 62 59 59 57 58 57 54 52 49 48 49 46 44 40 39 39 39 37 32
59 60 61 63 67 75 78 79 79 80 84 85 82 82 81 80 79 76 73 72 71 68 66 62 63 62 59 56 55 56 54 56 54 53 49 48 44 46 46 41 38 34 34 36 36 34 29
57 54 54 58 62 64 65 66 64 64 66 67 64 66 67 66 64 63 61 59 60 58 58 57 57 56 54 51 50 50 45 46 46 46 44 43 45 46 41 32 30 31 27 27 25 25 24
52 50 49 53 59 60 60 59 60 59 57 57 55 54 53 54 53 49 50 49 47 48 48 47 48 46 46 46 44 42 42 43 42 42 41 40 41 37 25 17 26 22 18 20 24 22 16
50 50 49 49 53 57 60 60 59 59 57 56 54 53 52 52 51 48 48 46 47 49 47 48 48 49 49 48 45 45 45 43 43 40 36 36 37 25 18 21 30 22 21 24 31 22 15
49 51 49 47 49 56 57 61 61 60 59 56 55 55 54 52 49 46 48 47 49 51 50 50 50 52 52 51 47 49 48 46 43 43 39 43 34 26 26 24 31 26 27 27 28 19 17
46 48 48 47 49 52 54 54 57 57 56 57 56 55 52 50 49 47 50 49 49 49 47 50 51 52 51 52 51 48 50 48 47 48 41 39 39 33 33 36 31 33 31 28 30 23 20
42 47 49 48 45 47 52 54 55 55 58 58 58 56 54 51 50 48 49 49 46 48 48 50 49 48 49 53 54 54 52 53 55 50 47 46 43 36 34 39 34 31 33 32 33 32 23
44 46 48 48 46 44 45 50 55 57 57 55 53 53 52 51 48 48 49 46 47 48 48 48 47 49 47 51 51 53 52 53 60 56 51 46 39 37 38 34 39 40 37 35 36 31 24
44 46 46 45 51 50 49 51 50 53 54 53 54 54 53 50 47 49 48 46 47 46 47 48 47 46 46 49 48 51 51 52 55 51 45 41 33 41 43 44 38 39 38 41 40 30 25
44 45 47 48 49 49 54 53 51 51 50 49 51 51 50 47 50 50 48 44 43 44 50 48 48 48 45 45 49 51 51 52 50 46 44 44 42 43 44 43 38 41 41 41 33 29 26
47 47 48 50 53 53 53 52 54 54 53 52 51 50 47 51 50 49 46 41 41 47 43 40 43 46 44 42 46 49 49 50 49 49 48 41 42 43 41 43 42 42 41 36 33 29 24
46 51 52 52 53 53 54 55 57 58 57 57 56 54 53 55 52 49 45 43 49 48 45 40 41 45 46 41 40 45 48 48 47 52 51 45 43 40 38 43 43 45 41 38 35 28 25
37 46 53 55 61 59 57 57 57 57 60 62 58 54 53 54 52 50 49 50 49 47 44 41 40 42 46 41 37 40 46 51 51 50 54 52 50 45 46 45 46 48 46 45 35 29 28
35 35 34 41 55 60 67 66 64 61 59 60 61 58 55 55 52 53 55 53 50 48 42 42 37 39 42 40 40 39 46 48 46 45 48 52 53 48 47 48 45 41 40 38 34 30 29
37 38 41 44 45 44 51 68 74 74 69 65 62 60 58 57 57 58 57 53 51 50 45 42 36 33 40 41 39 39 44 45 42 42 43 45 42 43 41 40 40 38 36 36 33 34 34
47 48 47 47 50 49 54 56 59 71 87 77 67 63 60 57 55 57 61 57 52 45 41 43 36 31 38 39 41 44 38 40 39 38 38 38 39 38 38 39 39 38 38 38 35 33 30
50 49 51 55 57 57 54 52 58 63 76 87 81 69 67 63 57 57 58 59 57 49 40 40 37 32 37 38 41 43 38 38 39 39 39 37 37 37 40 37 40 42 44 42 36 32 30
52 54 54 54 56 59 54 50 46 49 62 74 91 80 73 67 61 59 60 60 57 51 43 41 40 35 40 43 46 45 41 42 41 37 37 37 36 35 37 41 44 45 48 40 34 33 31
53 53 52 54 54 58 53 46 39 44 58 68 79 87 78 69 66 61 59 57 57 52 45 44 45 39 44 47 47 47 43 41 40 42 41 40 38 38 37 39 41 43 42 38 39 37 37
49 50 50 50 51 52 49 41 36 39 55 65 75 90 83 75 70 64 62 58 55 53 50 47 48 41 47 49 50 51 50 48 47 46 43 42 41 40 38 39 40 40 45 44 43 45 42
45 43 44 47 48 47 47 40 35 37 48 62 71 84 89 81 76 69 69 63 58 53 51 51 48 39 41 46 47 49 47 45 47 45 43 40 38 41 39 39 38 46 53 49 44 35 33
46 42 43 46 45 46 45 41 34 37 42 55 67 78 87 85 83 79 74 71 63 54 52 51 50 43 43 45 45 44 44 43 46 45 42 39 41 38 33 31 36 44 45 42 30 25 29
43 42 43 44 44 46 45 43 35 36 42 50 63 73 85 86 85 85 81 77 71 61 56 55 54 50 50 54 51 47 45 45 45 48 47 42 34 27 23 26 31 30 30 36 33 27 30
45 45 45 44 44 45 46 45 36 35 42 48 57 69 77 89 89 85 85 84 77 70 64 59 59 58 55 59 57 52 45 43 44 48 45 39 28 22 19 25 23 27 28 23 21 33 33
47 47 45 43 45 45 46 46 35 33 41 46 52 62 73 84 93 90 88 86 81 76 72 67 63 63 61 59 58 51 43 39 44 45 43 38 30 25 21 19 20 28 30 29 28 35 31

GFSGBSN_250_spd_036.txt.gz
Wind_Speed
94 100 101 100 98 97 95 92 90 90 87 84 83 81 78 77 73 73 73 74 73 72 69 67 68 68 68 69 69 68 68 65 62 61 60 62 61 59 57 55 48 40 39 36 36 39 40
97 96 98 103 102 99 98 97 96 95 93 91 88 87 85 83 81 80 79 79 78 76 75 73 73 72 73 72 71 68 63 64 62 58 56 55 57 54 55 51 48 43 41 39 35 38 38
92 98 98 98 102 104 101 100 100 98 97 95 94 91 91 90 89 86 86 84 84 82 79 78 76 75 73 74 72 67 66 64 59 56 56 57 58 58 53 49 45 41 39 39 37 33 35
73 83 93 99 101 100 102 105 105 103 101 99 98 97 97 95 93 90 89 88 85 83 81 78 77 75 69 69 69 68 65 64 61 60 60 57 55 54 53 47 41 38 38 35 38 33 31
67 68 75 84 92 98 101 101 100 99 100 104 101 100 98 94 94 92 90 88 87 83 83 80 76 74 70 67 69 67 65 62 60 59 57 56 56 56 51 48 38 37 37 33 33 30 24
66 63 62 67 73 79 87 96 101 101 99 98 98 98 98 95 94 92 90 87 85 82 80 79 75 73 74 70 67 63 62 62 58 56 56 54 54 49 46 39 35 33 32 28 24 19 15
67 64 63 60 60 67 71 78 80 88 94 95 94 92 93 92 90 87 82 81 82 78 76 72 70 67 66 63 59 57 55 53 53 52 50 48 47 45 34 31 29 22 17 17 16 16 14
64 64 65 63 63 60 62 63 66 71 74 78 83 83 83 81 82 78 72 67 70 69 62 56 55 56 56 55 53 50 48 47 46 43 42 44 45 36 28 25 26 17 16 18 18 17 14
65 61 60 61 60 59 59 59 60 60 62 63 65 67 67 66 62 58 56 56 56 54 51 52 51 51 50 50 48 47 46 45 46 44 44 45 39 33 24 24 27 16 10 20 22 17 12
57 56 54 56 56 55 54 54 56 58 59 58 57 57 57 55 53 53 54 53 52 49 49 48 48 48 48 48 49 48 48 48 49 47 48 43 36 33 31 30 31 24 17 24 25 17 16
51 52 52 53 51 50 50 50 51 52 57 58 58 56 55 54 52 52 53 52 49 49 46 48 46 47 51 51 48 49 50 51 51 48 49 43 41 38 36 34 34 28 27 29 25 17 23
49 48 48 49 49 51 50 46 47 53 53 56 57 58 55 54 53 54 54 52 50 48 46 46 46 48 47 50 48 49 49 50 49 48 49 47 45 42 38 37 35 37 28 28 27 28 30
42 44 45 45 43 45 50 49 47 49 51 54 54 55 55 54 54 56 55 51 49 45 48 48 47 48 48 51 47 46 47 48 48 50 52 49 47 46 44 43 39 39 36 29 29 29 29
40 42 44 45 45 44 48 49 48 47 48 54 52 52 53 54 57 59 56 51 47 49 49 48 50 50 50 49 47 44 42 43 45 47 51 49 51 52 51 47 39 39 36 38 32 31 29
41 42 42 44 45 44 44 48 49 47 49 47 49 51 54 57 58 56 52 48 49 51 49 49 51 50 48 47 43 41 40 42 44 46 48 48 47 50 51 46 41 40 36 39 37 29 27
45 46 45 46 46 46 49 48 49 50 51 52 52 51 53 55 55 52 49 51 53 51 51 51 50 47 44 43 43 43 40 40 42 47 48 47 46 43 46 44 41 41 41 37 34 32 31
44 44 46 47 48 48 50 51 52 52 53 54 53 54 53 55 53 50 50 53 52 50 51 50 47 43 43 38 36 39 38 40 40 43 45 45 44 44 44 40 38 38 34 32 33 35 39
47 46 45 43 49 54 54 53 54 55 57 56 56 57 55 56 55 54 53 54 52 52 52 48 45 42 40 37 34 36 39 41 42 39 41 45 42 45 43 41 38 36 36 37 35 38 39
28 38 46 43 46 50 55 57 58 57 57 60 63 64 62 61 59 58 56 55 55 56 53 48 45 40 40 39 34 33 38 41 39 38 39 44 40 45 46 45 43 43 45 40 38 42 36
36 38 40 40 40 41 41 42 49 57 62 64 62 61 64 68 65 62 60 58 56 57 53 49 47 41 40 37 34 33 37 40 39 39 43 43 41 43 43 50 49 49 47 43 44 39 34
48 49 49 46 46 45 44 44 43 44 48 54 64 67 70 66 63 63 62 62 60 60 54 51 48 43 42 38 32 35 39 41 38 38 42 41 40 41 43 45 44 43 41 38 38 36 35
55 56 53 53 53 53 55 55 53 51 55 55 55 60 65 74 69 67 67 65 64 61 55 52 49 44 42 41 36 37 41 42 40 38 40 41 41 42 42 43 44 42 38 37 36 36 34
59 56 53 53 56 56 55 55 55 56 52 53 56 63 70 76 75 76 70 68 65 60 57 56 54 48 45 41 37 40 43 42 43 42 41 41 42 42 42 43 41 36 34 37 37 36 33
63 58 61 58 55 56 55 56 57 50 46 48 52 62 66 72 79 82 74 71 65 59 57 58 60 56 47 43 40 42 46 42 39 42 41 42 42 42 41 41 36 32 36 35 36 35 36
64 58 56 54 49 49 51 50 48 43 43 43 45 48 53 62 72 81 81 75 70 63 59 57 58 58 51 45 47 45 48 47 41 42 43 43 41 40 41 40 33 33 36 34 36 39 42
49 49 50 51 49 46 46 46 44 42 41 39 37 39 45 58 70 80 85 78 72 67 60 58 56 55 53 49 48 45 51 50 51 48 47 46 45 45 43 38 34 36 32 33 39 44 48
47 45 48 51 48 47 46 44 43 43 38 37 32 35 42 57 70 80 85 80 73 69 63 59 56 57 55 52 49 45 53 52 52 52 49 50 47 46 44 40 35 32 33 38 43 47 47
46 46 45 44 48 45 44 44 43 44 39 35 31 33 42 56 70 79 87 84 76 72 66 62 58 56 55 56 50 47 50 54 55 53 54 52 46 44 45 42 34 32 37 40 40 37 33
45 48 50 47 47 45 45 46 45 43 41 36 30 34 43 54 69 77 86 88 83 75 71 67 63 59 58 57 52 49 48 51 51 46 43 42 43 45 44 36 32 38 38 32 31 30 30